Location: Andershausen
(51.8462°N, 9.8595°E)
Time: 08:57:52
(UTC+00:00)

Cosmos 1954 Rocket - Pass Details

Date: 18 November 2025
Orbit: 749 x 776 km, 74.0° (Epoch: 11 December)

Event Time Altitude Azimuth Distance (km) Brightness Sun altitude
Rises 18:07:36 0° 209° (SSW) 3,238 7.6 -24.6°
Reaches altitude 10° 18:09:59 10° 212° (SSW) 2,312 6.8 -25.0°
Maximum altitude 18:15:13 72° 297° (WNW) 810 4.1 -25.8°
Enters shadow 18:16:53 44° 9° (N) 1,061 4.6 -26.0°
